SARAL

Last updated on Mon Sep 21 2026 00:02:45 GMT+0000 (Coordinated Universal Time)

1 39086U 13009A 26263.56676606 .00000034 00000+0 28312-4 0 9996 2 39086 98.5563 88.9433 0002336 36.7128 323.4216 14.32908022709266
UTC large
Height (km)
Speed (km/s)
/
Latitude / Longitude
Inclination (degrees)
Orbital Period (minutes)
Azimuth
Elevation
Range (km)
Doppler Factor

Next 0 passes for location: London (51.5072 / 0.1276)

No passes found over London.
SARAL